sat.trackr.live / text

‹ back to catalog

HULIANWANG DIGUI-07

NORAD 62329 · 2024-240G

PAYLOAD ACTIVE UNKNOWN

§ Identity

Operator
Country
PRC
Launch date
2024-12-16
Launch site
WSC
Launch vehicle
Mass (kg)
RCS (m²)

External: N2YO · Heavens-Above · Gunter

§ Orbital elements

Epoch: 2026-09-22T20:43:19.763616Z

Period
108.73 min
Inclination
86.4932°
Eccentricity
0.0001619
Mean motion
13.24414111 rev/d
Perigee alt
1,166.7 km
Apogee alt
1,169.1 km
Semi-major
7,546.0 km
B*
5.5094e-5
RAAN
309.9649°
Arg perigee
89.2972°
Mean anomaly
270.8347°
Rev number
8,557

§ Raw data

HULIANWANG DIGUI-071 62329U 24240G   26265.86342319  .00000038  00000+0  55094-4 0  99982 62329  86.4932 309.9649 0001619  89.2972 270.8347 13.24414111 85578

JSON: /api/v1/satellites/62329 · /tle

For live sub-satellite position, see the globe view (requires WebGL).

§ Visibility from observer

Set your observer location to see the next 7 days of passes ≥ 10°. The values pass through the URL so the page stays shareable.

No JS? Fill the form by hand. The geolocation button needs JavaScript.